Location: Kimberly
(42.5380°N, 114.3640°W)
Time: 02:31:48
(UTC-07:00)

Envisat - Visible Passes

Search period start: 19 February 2019 00:00
Search period end: 01 March 2019 00:00
Orbit: 764 x 766 km, 98.2° (Epoch: 19 February)

Date Brightness Start Highest point End Pass type
(mag) Time Alt. Az. Time Alt. Az. Time Alt. Az.
19 Feb 2.9 19:10:11 10° SSE 19:15:15 81° ENE 19:20:21 10° N visible
19 Feb 6.1 20:52:59 10° WSW 20:54:52 12° W 20:56:45 10° WNW visible
20 Feb 3.5 18:34:01 10° SE 18:38:38 37° ENE 18:43:18 10° N visible
20 Feb 5.1 20:13:29 10° SSW 20:17:43 27° W 20:22:00 10° NW visible
21 Feb 6.6 06:44:18 10° ENE 06:46:04 12° E 06:47:50 10° ESE visible
21 Feb 3.6 19:35:48 10° S 19:40:47 59° W 19:45:49 10° NNW visible
22 Feb 3.0 18:59:03 10° SSE 19:04:03 64° ENE 19:09:05 10° N visible
22 Feb 5.9 20:40:35 10° SW 20:43:31 15° W 20:46:29 10° NW visible
23 Feb 4.7 20:01:53 10° SSW 20:06:26 33° W 20:11:02 10° NNW visible
24 Feb 3.2 19:24:30 10° S 19:29:33 74° WSW 19:34:40 10° NNW visible
25 Feb 3.2 18:47:59 10° SE 18:52:53 51° ENE 18:57:48 10° N visible
25 Feb 5.6 20:28:34 10° SW 20:32:11 19° W 20:35:49 10° NW visible
26 Feb 4.3 19:50:23 10° S 19:55:10 42° W 20:00:00 10° NNW visible
27 Feb 3.0 19:13:16 10° SSE 19:18:21 88° ENE 19:23:28 10° NNW visible
27 Feb 6.2 20:56:54 10° W 20:58:02 11° W 20:59:10 10° WNW visible
28 Feb 5.3 20:16:47 10° SSW 20:20:52 24° W 20:25:00 10° NW visible
